Weather History for Sandberg, CA

Change the Weather History Date:

Wednesday, December 5, 2012

  Actual Average Record
Temperature  
Mean Temperature 55 °F 43 °F  
Max Temperature 61 °F 49 °F 70 °F (1993)
Min Temperature 49 °F 37 °F 17 °F (1972)
Degree Days  
Heating Degree Days 10 22  
Month to date heating degree days 68 107  
Since 1 July heating degree days 630 886  
Cooling Degree Days 0 0  
Month to date cooling degree days 0 0  
Year to date cooling degree days 1360 998  
Growing Degree Days 4 (Base 50)    
Moisture  
Dew Point 28 °F    
Average Humidity 37    
Maximum Humidity 61    
Minimum Humidity 12    
Precipitation  
Precipitation 0.00 in 0.05 in 3.47 in (1997)
Month to date precipitation 0.18 0.23  
Year to date precipitation 4.84 10.31  
Since 1 July precipitation 0.57 1.83  
Sea Level Pressure  
Sea Level Pressure 30.09 in    
Wind  
Wind Speed 16 mph (NNW)    
Max Wind Speed 24 mph    
Max Gust Speed 30 mph    
Visibility 10 miles    
Events      
T = Trace of Precipitation, MM = Missing Value Source: NWS Daily Summary

Daily Weather History Graph

Daily Weather History Graph

Search for Another Location

Airport:

Trip Planner

Search our weather history database for the weather conditions in past years. The results will help you decide how hot, cold, wet, or windy it might be!

Date:

Astronomy

Dec. 05, 2012 Rise Set
Actual Time 6:47 AM PST 4:43 PM PST
Civil Twilight 6:20 AM PST 5:11 PM PST
Nautical Twilight 5:48 AM PST 5:42 PM PST
Astronomical Twilight 5:18 AM PST 6:13 PM PST
Moon 11:25 PM PST (12/5) 11:24 AM PST (12/5)
Length of Visible Light 10h 51m
Length of Day
9h 55m
Waning Gibbous, 58% of the Moon is Illuminated
Dec 5
Waning Gibbous
Dec 6
Last Quarter
Dec 13
New
Dec 19
First Quarter
Dec 28
Full

Hourly Weather History & Observations

Time (PST) Temp. Dew Point Humidity Pressure Visibility Wind Dir Wind Speed Gust Speed Precip Events Conditions
12:48 AM 54.0 °F 10.9 °F 18% 30.17 in 10.0 mi NNW 17.3 mph - N/A   Clear
1:48 AM 55.9 °F 5.0 °F 13% 30.15 in 10.0 mi NNW 12.7 mph - N/A   Clear
2:48 AM 55.0 °F 7.0 °F 15% 30.14 in 10.0 mi NNW 19.6 mph - N/A   Clear
3:48 AM 52.0 °F 21.0 °F 30% 30.14 in 10.0 mi NNW 19.6 mph - N/A   Clear
4:48 AM 52.0 °F 21.0 °F 30% 30.14 in 10.0 mi NNW 20.7 mph - N/A   Clear
6:48 AM 53.1 °F 15.1 °F 22% 30.14 in 10.0 mi NNW 18.4 mph - N/A   Clear
7:48 AM 53.1 °F 12.9 °F 20% 30.14 in 10.0 mi NNW 16.1 mph - N/A   Clear
8:48 AM 54.0 °F 25.0 °F 33% 30.16 in 10.0 mi North 11.5 mph - N/A   Clear
9:48 AM 55.9 °F 35.1 °F 45% 30.15 in 10.0 mi North 11.5 mph - N/A   Clear
10:48 AM 59.0 °F 37.0 °F 44% 30.13 in 10.0 mi North 18.4 mph 24.2 mph N/A   Clear
11:48 AM 60.1 °F 37.9 °F 44% 30.10 in 10.0 mi North 13.8 mph 23.0 mph N/A   Clear
12:48 PM 60.1 °F 41.0 °F 49% 30.08 in 10.0 mi North 17.3 mph 24.2 mph N/A   Clear
1:48 PM 59.0 °F 39.9 °F 49% 30.05 in 10.0 mi North 17.3 mph 24.2 mph N/A   Clear
2:48 PM 57.9 °F 39.0 °F 49% 30.04 in 10.0 mi North 15.0 mph 25.3 mph N/A   Clear
3:48 PM 53.1 °F 34.0 °F 48% 30.05 in 10.0 mi North 12.7 mph 21.9 mph N/A   Clear
4:48 PM 50.0 °F 36.0 °F 59% 30.05 in 10.0 mi NNW 21.9 mph 29.9 mph N/A   Clear
5:48 PM 51.1 °F 28.0 °F 41% 30.06 in 10.0 mi NNW 19.6 mph - N/A   Clear
6:48 PM 50.0 °F 30.0 °F 46% 30.05 in 10.0 mi NNW 15.0 mph - N/A   Clear
7:48 PM 50.0 °F 21.0 °F 32% 30.05 in 10.0 mi NNW 18.4 mph - N/A   Clear
8:48 PM 50.0 °F 25.0 °F 38% 30.05 in 10.0 mi NNW 15.0 mph - N/A   Clear
9:48 PM 50.0 °F 30.0 °F 46% 30.05 in 10.0 mi North 13.8 mph - N/A   Clear
10:48 PM 48.9 °F 36.0 °F 61% 30.03 in 10.0 mi North 6.9 mph 19.6 mph N/A   Clear
11:48 PM 48.0 °F 36.0 °F 63% 30.02 in 10.0 mi NNW 20.7 mph - N/A   Clear